Starlink 11694

operational
NORAD ID: 64243 Int'l Des: 2025-119 Owner: SPXS Country: US Constellation: starlink
LEOCIRCULAR

Über Starlink 11694

Beschreibung wird geladen...

Live-Position

3D-Globus wird geladen...

Nächste Überflüge

Höhenverlauf

Altitude vs Time

uPlot chart will show altitude changes over time

Zweizeiliger Elementsatz

1 64243U 25119L 26095.22800744 .00358095 00000-0 26443-2 0 9997
2 64243 42.9998 49.5830 0005083 270.2107 89.8179 15.71115092 49418
Epoch: 5. Apr. 2026 • Age: 16 hours

Aktueller Status

Höhe 354.7 km
Geschwindigkeit 7.70 km/s
Subsatellitenpunkt 11.92°N, 57.14°E
Startdatum 3. Juni 2025
Alter 0.8 years
Typ internet

Technische Details

Klassifizierung Payload
Masse 960.00 kg
Trockenmasse 910.00 kg
Gesamtmasse 960.00 kg
Länge 0.30 m
Durchmesser 4.10 m
Spannweite 29.00 m
Form Box + pan
Hersteller SPXS
Bus-Typ Starlink V2MD
Phasenstatus In Orbit
Besitzer/Staat SPXS/US

Große Konstellationen

Loading constellations...